Location: Newark
(0.5300°S, 127.4800°E)
Time: 11:37:44
(UTC+00:00)

Explorer 11/Cluster Stage 4 - Visible Passes

Search period start: 20 September 2019 00:00
Search period end: 30 September 2019 00:00
Orbit: 467 x 1260 km, 28.8° (Epoch: 20 September)

Date Brightness Start Highest point End Pass type
(mag) Time Alt. Az. Time Alt. Az. Time Alt. Az.
20 Sep 8.3 10:48:03 10° W 10:55:11 39° NNW 10:59:32 19° NNE visible
20 Sep 8.1 20:02:34 10° N 20:04:48 16° NNE 20:07:14 10° ENE visible
21 Sep 8.6 10:37:27 10° W 10:44:26 34° NNW 10:50:03 12° NNE visible
21 Sep 7.6 19:53:10 18° N 19:54:19 20° NNE 19:57:12 10° E visible
22 Sep 8.8 10:26:56 10° W 10:33:40 30° NNW 10:39:40 10° NNE visible
22 Sep 7.2 19:43:47 27° NNE 19:43:50 27° NNE 19:47:02 10° E visible
23 Sep 9.1 10:16:30 10° W 10:22:56 26° NNW 10:28:47 10° NNE visible
23 Sep 7.3 19:34:22 30° ENE 19:34:22 30° ENE 19:36:46 10° E visible
24 Sep 9.3 10:06:09 10° WNW 10:12:13 23° NNW 10:17:51 10° NNE visible
24 Sep 7.9 19:24:55 22° E 19:24:55 22° E 19:26:26 10° ESE visible
25 Sep 9.4 09:55:54 10° WNW 10:01:32 20° NNW 10:06:51 10° NNE visible
25 Sep 8.5 19:15:24 14° ESE 19:15:24 14° ESE 19:16:03 10° ESE visible
26 Sep 9.5 09:45:45 10° WNW 09:50:51 18° NNW 09:55:45 10° NNE visible
26 Sep 7.9 20:49:49 10° SSW 20:50:16 10° SSW 20:50:45 10° SSW visible
